Location: Tamazert
(32.6352°N, 5.2072°W)
Time: 04:33:19
(UTC+00:00)

Vanguard 2 Rocket - Pass Details

Date: 06 October 2022
Orbit: 555 x 3321 km, 32.9° (Epoch: 05 December)

Event Time Altitude Azimuth Distance (km) Brightness Sun altitude
Rises 03:25:34 0° 283° (WNW) 4,956 - -36.6°
Reaches altitude 10° 03:29:41 10° 278° (W) 3,497 - -35.8°
Maximum altitude 03:37:14 43° 210° (SSW) 1,288 - -34.3°
Exits shadow 03:41:34 13° 141° (SE) 2,048 8.9 -33.4°
Drops below altitude 10° 03:41:58 10° 139° (SE) 2,186 9.1 -33.4°
Sets 03:44:01 0° 131° (SE) 2,942 9.9 -33.0°
